Pagrindinis puslapis
METAR-TAF:

METAR-TAF

Oro uostai :

Raton Municipal Airport (Crews Field)

Raton, Naujoji Meksika, Jungtinės Amerikos Valstijos

platuma: 36-44-31N, ilguma: 104-39-28W, Aukštis: 1935 m

Dabartinis oras

Ataskaita buvo paskelbta 55 minutes, ne 11:53 UTC
Vėjas 6 kt iš Rytų/Šiaurės Rytų
Temperatūra 4°C
Drėgmė 70%
Slėgis 1023 hPa
Matomumas: 16.1 km
Giedras dangus

METAR: KRTN 231153Z AUTO 07006KT 10SM CLR 04/M01 A3020 RMK AO2 SLP163 T00391006 10133 20033 56007

Laikas: 06:48 (12:48 UTC)


TAF: trūkstamas

Orai ataskaitas ir orų prognozės (METAR, TAF).

turimą stotys yra geltonos ir raudonos taškus žemėlapyje.

Perkelti pele per norėdami pamatyti stoties vardą.

Tada spustelėkite, norėdami matyti oro stebėjimo ir prognozės.

Norėdami pakeisti žemėlapį: spustelėkite ant žalios mygtukų su juodo kryžiaus žemyn,; žalią mygtuką su brūkšneliu, jei norite nutolinti; arba žalių rodyklių gretimoms žemėlapius.


METAR-TAF: